User: anonymous   Login
Location: Aragüita
(10.0436°N, 67.8028°W)
Time: 14:13:22
(UTC+00:00)
Language:

Delta 7925 Rocket - Orbit

View from above orbital plane
View from above orbital plane
View from above satellite
View from above satellite

Ground track
Ground track

The orbit data is extracted from the following two-line orbital elements,

1 24809U 97025B   24176.64542695  .00000165  00000-0  24797-4 0  9992
2 24809  26.2991 355.5129 0664165 321.9895  33.5489 13.30553282317677
Epoch (UTC): 24 June 2024 15:29:24
Eccentricity: 0.0664165
inclination: 26.2991°
perigee height: 645 km
apogee height: 1644 km
right ascension of ascending node: 355.5129°
argument of perigee: 321.9895°
revolutions per day: 13.30553282
mean anomaly at epoch: 33.5489°
orbit number at epoch: 31767

The dashed part of the orbit path shows where the satellite is in the earth's shadow,  

DLR